Regional Weather Roundup
Issued by NWS

Home | Current Version | Previous Version | Text Only | Print | Product List | Glossary Off
Versions: 1 2 3 4 5 6 7 8 9 10 11 12 13 14 15 16 17 18 19 20 21 22 23 24 25 26 27 28 29 30 31 32 33 34 35 36 37 38 39 40 41 42 43 44 45 46 47 48 49 50

291
ASUS45 KTFX 280610
RWRMT
MONTANA REGIONAL WEATHER ROUNDUP
NATIONAL WEATHER SERVICE GREAT FALLS MT
1200 AM MDT WED JUN 28 2017

NOTE: "FAIR" INDICATES FEW OR NO CLOUDS BELOW 12000 FEET WITH NO
SIGNIFICANT WEATHER AND/OR OBSTRUCTIONS TO VISIBILITY.

MTZ001>007-043-280700-
WEST OF THE DIVIDE

CITY           SKY/WX    TMP DP  RH WIND       PRES   REMARKS
KALISPELL      PTCLDY    55  46  71 E3        29.80R
MISSOULA       PTCLDY    64  41  42 N7        29.83S
BUTTE          CLOUDY    54  44  69 S7        29.97F
MULLAN PASS    PTCLDY    52  34  50 VRB7      29.97F
ANACONDA         N/A     59  45  58 S12       29.92F
DEER LODGE       N/A     55  46  71 W3        29.92S
EUREKA           N/A     63  41  45 CALM      29.77S
HAMILTON         N/A     63  46  55 S12       29.87S
$$

MTZ008-052>055-280700-
SOUTHWEST MONTANA

CITY           SKY/WX    TMP DP  RH WIND       PRES   REMARKS
BOZEMAN        CLOUDY    54  49  83 E7        29.91S
DILLON         CLOUDY    56  44  64 S12       29.95F
W YELLOWSTONE  CLOUDY    45  45 100 W5        30.06S
ENNIS          CLEAR     52  45  76 SW5       30.02S
THREE FORKS      N/A     56  49  77 CALM      29.91R
$$

MTZ009-010-012-014-046-048-049-054-280700-
EAST SLOPES AND CENTRAL MONTANA

CITY           SKY/WX    TMP DP  RH WIND       PRES   REMARKS
CUT BANK       MOCLDY    58  33  39 W8        29.77S
GREAT FALLS    CLOUDY    54  46  74 CALM      29.77S
MALMSTROM AFB  CLOUDY    59  51  75 SE6       29.76F
HELENA         CLEAR     68  38  33 W9        29.83S
CHOTEAU          N/A     66  34  30 W7        29.79F
$$

MTZ011-013-016-021-045-047-050-051-280700-
NORTH CENTRAL MONTANA

CITY           SKY/WX    TMP DP  RH WIND       PRES   REMARKS
HAVRE          CLEAR     57  42  57 S3        29.73S
LEWISTOWN      CLOUDY    61  47  59 S10       29.82F
N BAR RANCH      N/A     55  50  82 VRB3      29.88S
CHINOOK          N/A     63  45  51 SE6       29.73S
FORT BENTON      N/A     64  45  48 MISG      29.75S
$$

MTZ017>020-022>027-061-062-280700-
NORTHEAST MONTANA

CITY           SKY/WX    TMP DP  RH WIND       PRES   REMARKS
GLASGOW        CLEAR     59  42  53 NE9       29.74R
JORDAN           N/A     60  57  89 CALM      29.76S
SIDNEY         CLOUDY    65  56  72 NW8       29.71R
WOLF POINT     CLOUDY    63  46  54 W5        29.75R
MALTA          CLEAR     57  46  67 NE5       29.74S
PLENTYWOOD       N/A     61  48  63 CALM      29.73R
POPLAR           N/A     64  48  55 CALM      29.74R
$$

MTZ028>42-056>058-280700-
SOUTHCENTRAL AND SOUTHEAST MONTANA

CITY           SKY/WX    TMP DP  RH WIND       PRES   REMARKS
BAKER          CLOUDY    62  51  67 W8        29.75R
BILLINGS       PTCLDY    64  50  60 S7        29.82S
LIVINGSTON     CLEAR     63  46  54 SW25      29.86F
MILES CITY     PTCLDY    63  52  67 NW8       29.76S
BIG TIMBER     CLEAR     63  45  51 W21       29.90R
LAUREL           N/A     64  43  46 SW7       29.84R
ROUNDUP          N/A     66  46  48 SW5       29.76S
$$

REGIONAL REPORTS...DAKOTAS

CITY           SKY/WX    TMP DP  RH WIND       PRES   REMARKS
WILLISTON      MOCLDY    66  57  72 NW10      29.68R
MINOT          CLOUDY    68  58  70 NW20      29.55R
DICKINSON      MOCLDY    65  55  70 NW9       29.65R
BEACH          MOCLDY    63  63 100 N14       29.74S
CROSBY           N/A     55  55 100 W7        29.68R
TIOGA            N/A     59  59 100 NW7       29.68R
WATFORD CITY     N/A     64  57  77 NW7       29.67S
BISMARCK       CLOUDY    66  65  96 NW9       29.54R
GRAND FORKS    CLOUDY    67  51  56 SE13      29.56F
FARGO          TSTM      63  57  81 S16G31    29.56R
RAPID CITY     PTCLDY    65  51  60 NW15      29.74S
$$

REGIONAL REPORTS...WYOMING/IDAHO/WASHINGTON

CITY           SKY/WX    TMP DP  RH WIND       PRES   REMARKS
GILLETTE       CLEAR     55  53  93 W7        29.87S
SHERIDAN       CLEAR     53  49  86 S9        29.87F
BUFFALO WY     CLEAR     57  47  69 W7        29.93S
CODY           CLOUDY    65  40  39 W12G20    29.93S
YELLOWSTONE LA   N/A     43  43 100 NW3       30.15S
IDAHO FALLS    CLEAR     59  48  67 N9        29.95R
SALMON         CLOUDY    61  48  63 CALM      29.94F
BOISE          PTCLDY    74  44  34 SE9       29.78R
SPOKANE        MOCLDY    67  40  37 SW9       29.81S
$$

REGIONAL REPORTS...ALBERTA

CITY           SKY/WX    TMP DP  RH WIND       PRES   REMARKS
EDMONTON       LGT RAIN  54  48  82 W8        29.67F
CALGARY        PTCLDY    55  43  62 N14       29.80R
LETHBRIDGE     CLEAR     57  39  51 SW13      29.70R
MEDICINE HAT   CLEAR     61  43  51 E13       29.70F
WATERTON GATE    N/A     61  36  39 SW9         N/A
CARDSTON         N/A     63  36  36 SW9         N/A
MILK RIVER       N/A     54  43  66 NW7         N/A
$$

REGIONAL REPORTS...SASKATCHEWAN

CITY           SKY/WX    TMP DP  RH WIND       PRES   REMARKS
SWIFT CURRENT  CLEAR     55  37  50 N2        29.74S
REGINA         CLEAR     57  43  58 NW16G22   29.67R
SASKATOON      PTCLDY    50  43  76 W6        29.68S
CYPRESS HILLS    N/A     54  36  50 E5          N/A
VAL MARIE        N/A     43  36  75 NE3         N/A
ROCKGLEN         N/A     55  41  58 NW7         N/A
ASSINIBOIA       N/A     54  48  82 SW7         N/A
$$




USA.gov is the U.S. government's official web portal to all federal, state and local government web resources and services.